EW9119 Weather Reports


time (UTC)temp
F
wind
direction
speed
knots
gust
knots
rain 1hr
in
rain 24hr
in
rain mn
in
humidity
%
barometer
mb
20260510230045 77 147 0.0 0.0 0.00 0.00 0.00 41 1011.7
20260510224537 78 72 0.0 0.0 0.00 0.00 0.00 39 1011.5
20260510223033 78 67 0.0 0.0 0.00 0.00 0.00 40 1011.5
20260510221528 79 298 0.0 0.0 0.00 0.00 0.00 37 1011.6
20260510220024 79 298 0.0 0.0 0.00 0.00 0.00 33 1011.6
20260510214519 80 279 0.0 0.0 0.00 0.00 0.00 34 1011.6
20260510213016 80 279 0.0 0.0 0.00 0.00 0.00 31 1011.8
20260510211512 80 325 0.0 0.0 0.00 0.00 0.00 33 1011.7
20260510210006 80 324 0.0 0.0 0.00 0.00 0.00 30 1011.6
20260510204503 80 38 0.0 0.0 0.00 0.00 0.00 33 1011.7
20260510203058 80 298 0.0 0.0 0.00 0.00 0.00 33 1011.8
20260510201554 80 309 0.0 0.0 0.00 0.00 0.00 32 1011.8
20260510200113 80 329 0.0 0.0 0.00 0.00 0.00 31 1011.9
20260510194554 80 86 0.0 0.0 0.00 0.00 0.00 31 1012.1
20260510193046 80 117 0.0 0.0 0.00 0.00 0.00 29 1012.3
20260510191546 80 37 0.0 0.0 0.00 0.00 0.00 32 1012.3
20260510190032 80 311 0.0 0.0 0.00 0.00 0.00 30 1012.5
20260510184527 81 294 0.0 0.0 0.00 0.00 0.00 27 1012.5
20260510183125 81 305 0.0 0.0 0.00 0.00 0.00 30 1012.6
20260510181526 81 309 0.0 0.0 0.00 0.00 0.00 30 1012.7
20260510180014 82 301 0.0 0.0 0.00 0.00 0.00 31 1012.8
20260510174510 82 59 0.0 0.0 0.00 0.00 0.00 33 1013.0
20260510173006 81 148 0.0 0.0 0.00 0.00 0.00 36 1013.2
20260510171501 81 101 0.0 0.0 0.00 0.00 0.00 34 1013.1
20260510170107 81 306 0.0 0.0 0.00 0.00 0.00 33 1013.2
20260510164601 80 100 0.0 0.0 0.00 0.00 0.00 35 1013.3
20260510163049 80 314 0.0 0.0 0.00 0.00 0.00 36 1013.5
20260510161545 79 360 0.0 0.0 0.00 0.00 0.00 36 1013.7
20260510160040 79 334 0.0 0.0 0.00 0.00 0.00 43 1013.8
20260510154541 78 45 0.0 0.0 0.00 0.00 0.00 47 1013.8
20260510153038 78 307 0.0 0.0 0.00 0.00 0.00 49 1013.9
20260510151527 78 31 0.0 0.0 0.00 0.00 0.00 48 1014.0
20260510150022 77 303 0.0 0.0 0.00 0.00 0.00 45 1014.0
20260510144527 76 320 0.0 0.0 0.00 0.00 0.00 47 1014.0
20260510143013 74 322 0.0 0.0 0.00 0.00 0.00 52 1014.1
20260510141513 73 297 0.0 0.0 0.00 0.00 0.00 55 1014.2
20260510140005 71 296 0.0 0.0 0.00 0.00 0.00 58 1014.2
20260510134607 70 304 0.0 0.0 0.00 0.00 0.00 60 1014.3
20260510133113 68 202 0.0 0.0 0.00 0.00 0.00 49 1014.1
20260510131602 66 199 0.0 0.0 0.00 0.00 0.00 1 1014.1
20260510130047 64 27 0.0 0.0 0.00 0.00 0.00 1 1014.2
20260510124543 62 52 0.0 0.0 0.00 0.00 0.00 1 1014.1
20260510123052 59 55 0.0 0.0 0.00 0.00 0.00 1 1013.9
20260510121534 57 55 0.0 0.0 0.00 0.00 0.00 1 1013.7
20260510120032 54 62 0.0 0.0 0.00 0.00 0.00 1 1013.3
20260510114525 53 62 0.0 0.0 0.00 0.00 0.00 1 1012.9
20260510113023 52 62 0.0 0.0 0.00 0.00 0.00 1 1012.8
20260510111517 52 62 0.0 0.0 0.00 0.00 0.00 1 1012.6
20260510110012 53 62 0.0 0.0 0.00 0.00 0.00 1 1012.5
20260510104508 53 62 0.0 0.0 0.00 0.00 0.00 1 1012.1
20260510103005 53 63 0.0 0.0 0.00 0.00 0.00 1 1011.9
20260510101559 54 63 0.0 0.0 0.00 0.00 0.00 1 1011.7
20260510100055 54 63 0.0 0.0 0.00 0.00 0.00 1 1011.5
20260510094551 55 63 0.0 0.0 0.00 0.00 0.00 1 1011.3
20260510093046 55 63 0.0 0.0 0.00 0.00 0.00 1 1011.4
20260510091542 56 63 0.0 0.0 0.00 0.00 0.00 1 1011.4
20260510090038 56 63 0.0 0.0 0.00 0.00 0.00 1 1011.3
20260510084534 56 63 0.0 0.0 0.00 0.00 0.00 1 1011.2
20260510083029 56 63 0.0 0.0 0.00 0.00 0.00 1 1010.9
20260510081527 57 63 0.0 0.0 0.00 0.00 0.00 1 1010.8
20260510080020 57 63 0.0 0.0 0.00 0.00 0.00 1 1010.5
20260510074515 57 63 0.0 0.0 0.00 0.00 0.00 1 1010.5
20260510073012 58 63 0.0 0.0 0.00 0.00 0.00 1 1010.5
20260510071507 58 63 0.0 0.0 0.00 0.00 0.00 1 1010.4
20260510070004 58 63 0.0 0.0 0.00 0.00 0.00 1 1010.3
20260510064602 58 63 0.0 0.0 0.00 0.00 0.00 1 1010.4
20260510063055 59 62 0.0 0.0 0.00 0.00 0.00 1 1010.4
20260510061550 59 62 0.0 0.0 0.00 0.00 0.00 1 1010.3
20260510060045 59 62 0.0 0.0 0.00 0.00 0.00 1 1010.3
20260510054540 59 63 0.0 0.0 0.00 0.00 0.00 1 1010.5
20260510053037 60 63 0.0 0.0 0.00 0.00 0.00 1 1010.7
20260510051534 60 63 0.0 0.0 0.00 0.00 0.00 1 1010.7
20260510050033 61 63 0.0 0.0 0.00 0.00 0.00 1 1010.7
20260510044523 61 63 0.0 0.0 0.00 0.00 0.00 1 1010.6
20260510043019 61 63 0.0 0.0 0.00 0.00 0.00 1 1010.6
20260510041514 61 63 0.0 0.0 0.00 0.00 0.00 1 1010.7
20260510040012 62 63 0.0 0.0 0.00 0.00 0.00 1 1010.7
20260510034505 62 63 0.0 0.0 0.00 0.00 0.00 1 1010.7
20260510033001 62 63 0.0 0.0 0.00 0.00 0.00 1 1010.7
20260510031559 62 63 0.0 0.0 0.00 0.00 0.00 3 1010.6
20260510030052 63 63 0.0 0.0 0.00 0.00 0.00 11 1010.6
20260510024548 63 63 0.0 0.0 0.00 0.00 0.00 13 1010.6
20260510023044 64 63 0.0 0.0 0.00 0.00 0.00 22 1010.4
20260510021541 64 63 0.0 0.0 0.00 0.00 0.00 24 1010.1
20260510020035 65 63 0.0 0.0 0.00 0.00 0.00 30 1010.1
20260510014533 65 63 0.0 0.0 0.00 0.00 0.00 32 1009.9
20260510013026 66 63 0.0 0.0 0.00 0.00 0.00 39 1009.6
20260510011522 66 63 0.0 0.0 0.00 0.00 0.00 42 1009.2
20260510010019 67 63 0.0 0.0 0.00 0.00 0.00 48 1009.0
20260510004516 68 63 0.0 0.0 0.00 0.00 0.00 51 1008.7
20260510003009 68 63 0.0 0.0 0.00 0.00 0.00 53 1008.4
20260510001505 69 63 0.0 0.0 0.00 0.00 0.00 56 1008.4
20260509234558 70 63 0.0 0.0 0.00 0.00 0.00 59 1008.4
20260509233054 70 63 0.0 0.0 0.00 0.00 0.00 60 1007.9
20260509231550 70 63 0.0 0.0 0.00 0.00 0.00 61 1007.9